Location: Cypress Hills Dark-Sky Preserve - CHICO
(49.6176°N, 110.2634°W)
Time: 14:55:43
(UTC-06:00)

Amateur Radio Satellites - All Passes

Search period start: 26 March 2017 14:25
Search period end: 27 March 2017 14:25
Location: Cypress Hills Dark-Sky Preserve - CHICO, 49.6176°N, 110.2634°W

Satellite Date Start Highest point End Downlink Frequencies (MHz)
Time Altitude Azimuth
SO-50 26 Mar 14:31:17 14:32:43 11° 108° (ESE) 14:34:09 436.795
DX 1 26 Mar 14:40:11 14:44:35 78° 287° (WNW) 14:48:58 434.975-435.025
AO-7 26 Mar 14:57:40 15:05:42 56° 60° (ENE) 15:13:44 .
RS-15 26 Mar 15:00:29 15:12:40 78° 314° (NW) 15:25:10 29.354- 29.394
VELOX 1 26 Mar 15:03:30 15:07:05 24° 298° (WNW) 15:10:39 145.980
UKube-1 26 Mar 15:20:39 15:24:47 43° 292° (WNW) 15:28:53 .
Oscar 19 26 Mar 15:22:42 15:25:59 17° 272° (W) 15:29:17 437.125/150
BEESAT 26 Mar 15:24:14 15:27:54 22° 92° (E) 15:31:32 436.000
50 SAT 26 Mar 15:26:44 15:28:31 14° 299° (WNW) 15:30:19 437.505
ITAMSAT 1 26 Mar 15:27:33 15:32:46 75° 72° (ENE) 15:38:01 435.822/435.867
Gurwin Techsat 1B 26 Mar 15:35:36 15:39:44 23° 269° (W) 15:43:54 435.225
PCSat 26 Mar 15:36:10 15:38:29 13° 5° (N) 15:40:48 145.827
ITUPSAT 1 26 Mar 15:40:07 15:44:16 29° 95° (E) 15:48:23 437.325
NO-84 26 Mar 15:41:57 15:41:57 10° 230° (SW) 15:41:57 435.350 FM
MOZHAYETS 4 26 Mar 15:42:27 15:44:58 14° 88° (E) 15:47:27
SPROUT 26 Mar 15:50:30 15:51:19 10° 306° (NW) 15:52:08 437.525
SO-50 26 Mar 16:07:46 16:12:23 72° 128° (SE) 16:16:59 436.795
DX 1 26 Mar 16:18:20 16:20:01 12° 306° (NW) 16:21:42 434.975-435.025
DOVE 4 26 Mar 16:38:39 16:40:45 13° 52° (NE) 16:42:53 437.250
AO-7 26 Mar 16:50:55 16:58:43 43° 261° (W) 17:06:33 .
KKS-1 26 Mar 17:00:00 17:03:12 19° 91° (E) 17:06:23 437.445
BEESAT 26 Mar 17:01:21 17:06:01 54° 290° (WNW) 17:10:38 436.000
LilacSat-2 26 Mar 17:04:30 17:05:36 11° 58° (ENE) 17:06:41 437.200
HO-68 26 Mar 17:06:22 17:08:45 12° 36° (NE) 17:11:07 435.675
O/OREOS (USA 219) 26 Mar 17:08:23 17:12:04 25° 104° (ESE) 17:15:47 437.305
ITAMSAT 1 26 Mar 17:09:18 17:12:49 18° 271° (W) 17:16:21 435.822/435.867
RS-15 26 Mar 17:15:50 17:27:23 43° 344° (NNW) 17:39:00 29.354- 29.394
YUBILEINY 26 Mar 17:17:00 17:22:43 19° 50° (NE) 17:28:24 435.215
ITUPSAT 1 26 Mar 17:17:45 17:22:12 40° 294° (WNW) 17:26:38 437.325
MOZHAYETS 4 26 Mar 17:18:06 17:22:41 76° 286° (WNW) 17:27:13
CUTE-I 26 Mar 17:18:37 17:22:44 23° 58° (ENE) 17:26:51 437.470
PCSat 26 Mar 17:19:40 17:23:59 23° 31° (NNE) 17:28:16 145.827
XW-2D 26 Mar 17:27:19 17:29:55 18° 63° (ENE) 17:32:31 145.860 - 145.880
NUDT-PHONESAT 26 Mar 17:27:19 17:29:23 14° 61° (ENE) 17:31:26 437.300
XW-2B 26 Mar 17:33:02 17:35:49 20° 64° (ENE) 17:38:36 145.730 - 145.750
KAITUO 1B 26 Mar 17:34:12 17:36:39 17° 62° (ENE) 17:39:05 145.475/437.950
STARS 26 Mar 17:36:04 17:39:19 20° 92° (E) 17:42:33 437.465
XW-2C 26 Mar 17:42:49 17:45:56 24° 66° (ENE) 17:49:03 145.795 - 145.815
SO-50 26 Mar 17:49:23 17:53:17 26° 328° (NNW) 17:57:10 436.795
CUBESAT XI-V 26 Mar 18:10:14 18:14:53 69° 101° (ESE) 18:19:33 437.345
DOVE 4 26 Mar 18:12:44 18:17:27 69° 72° (ENE) 18:22:30 437.250
XW-2F 26 Mar 18:33:55 18:37:43 83° 75° (ENE) 18:41:30 145.980 - 146.000
LilacSat-2 26 Mar 18:35:26 18:39:17 88° 269° (W) 18:43:06 437.200
KKS-1 26 Mar 18:35:42 18:40:07 57° 290° (WNW) 18:44:31 437.445
O/OREOS (USA 219) 26 Mar 18:46:51 18:51:13 46° 303° (WNW) 18:55:40 437.305
HO-68 26 Mar 18:48:05 18:54:39 41° 59° (ENE) 19:01:13 435.675
CUTE-I 26 Mar 18:56:57 19:02:19 69° 257° (WSW) 19:07:42 437.470
MOZHAYETS 4 26 Mar 18:57:17 18:59:03 12° 306° (NW) 19:00:49
NUDT-PHONESAT 26 Mar 18:59:10 19:02:52 61° 259° (W) 19:06:36 437.300
XW-2D 26 Mar 19:00:07 19:03:48 47° 261° (W) 19:07:30 145.860 - 145.880
PCSat 26 Mar 19:02:44 19:08:13 81° 54° (NE) 19:13:39 145.827
XW-2B 26 Mar 19:06:09 19:09:46 42° 262° (W) 19:13:25 145.730 - 145.750
KAITUO 1B 26 Mar 19:06:42 19:10:20 49° 260° (W) 19:14:00 145.475/437.950
XW-2A 26 Mar 19:09:40 19:12:46 32° 69° (ENE) 19:15:53 145.665 - 145.685
STARS 26 Mar 19:11:39 19:15:59 53° 290° (WNW) 19:20:16 437.465
YUBILEINY 26 Mar 19:12:49 19:21:31 67° 76° (ENE) 19:30:11 435.215
AAUSAT CUBESAT 2 26 Mar 19:16:09 19:18:14 14° 58° (ENE) 19:20:19 437.432
XW-2C 26 Mar 19:16:35 19:20:01 32° 264° (W) 19:23:29 145.795 - 145.815
CUBEBUG 2 26 Mar 19:21:12 19:24:57 24° 62° (ENE) 19:28:42 437.445
M-CUBED/EXP-1 PRIME 26 Mar 19:29:53 19:34:07 34° 102° (ESE) 19:38:23 437.505
SEEDS 26 Mar 19:30:09 19:33:52 32° 67° (ENE) 19:37:36 437.485
ZACube-1 26 Mar 19:30:10 19:31:55 12° 56° (NE) 19:33:40 437.345
RS-15 26 Mar 19:31:52 19:43:35 44° 18° (NNE) 19:55:02 29.354- 29.394
SO-50 26 Mar 19:33:08 19:35:17 13° 352° (N) 19:37:23 436.795
CUTE 1.7 + AOD 2 26 Mar 19:36:51 19:40:57 55° 71° (ENE) 19:45:05 437.475
CUBESAT XI-V 26 Mar 19:48:39 19:51:48 18° 301° (WNW) 19:54:58 437.345
DOVE 4 26 Mar 19:52:30 19:55:44 18° 273° (W) 19:59:04 437.250
AO-73 26 Mar 19:56:52 19:59:59 19° 61° (ENE) 20:03:04 145.935
UWE-3 26 Mar 20:22:36 20:27:07 52° 71° (ENE) 20:31:35 435.000/436.395/437.385
O/OREOS (USA 219) 26 Mar 20:30:51 20:31:51 11° 326° (NW) 20:32:52 437.305
DELFI C3 26 Mar 20:34:53 20:36:08 11° 57° (ENE) 20:37:22 145.870
HO-68 26 Mar 20:35:20 20:42:15 51° 260° (W) 20:49:14 435.675
CUTE-I 26 Mar 20:42:05 20:43:22 11° 276° (W) 20:44:40 437.470
STRAND 1 26 Mar 20:42:59 20:48:04 58° 101° (ESE) 20:53:05 437.568
XW-2A 26 Mar 20:43:00 20:45:37 20° 267° (W) 20:48:14 145.665 - 145.685
PCSat 26 Mar 20:47:13 20:50:59 19° 253° (WSW) 20:54:44 145.827
AAUSAT CUBESAT 2 26 Mar 20:49:02 20:53:08 78° 255° (WSW) 20:57:17 437.432
Tancredo 1 26 Mar 20:51:31 20:51:49 10° 135° (SE) 20:52:08 437.200
Oscar 11 26 Mar 20:55:27 20:59:38 51° 71° (ENE) 21:03:50 .
CUBEBUG 2 26 Mar 20:56:38 21:01:16 52° 261° (W) 21:05:54 437.445
ZACube-1 26 Mar 21:02:56 21:07:28 77° 75° (ENE) 21:11:57 437.345
M-CUBED/EXP-1 PRIME 26 Mar 21:04:19 21:08:31 36° 300° (WNW) 21:12:47 437.505
SEEDS 26 Mar 21:05:59 21:09:35 28° 265° (W) 21:13:13 437.485
YUBILEINY 26 Mar 21:10:20 21:17:44 33° 278° (W) 21:25:07 435.215
CUTE 1.7 + AOD 2 26 Mar 21:14:19 21:17:08 17° 270° (W) 21:19:57 437.475
SO-50 26 Mar 21:14:55 21:17:36 15° 17° (NNE) 21:20:15 436.795
AO-73 26 Mar 21:31:19 21:35:48 63° 259° (WSW) 21:40:15 145.935
RS-15 26 Mar 21:45:38 21:58:06 82° 48° (NE) 22:10:04 29.354- 29.394
AO-85 26 Mar 21:49:37 21:53:48 48° 123° (ESE) 21:57:46 145.980
PRISM 26 Mar 21:54:26 21:56:35 14° 89° (E) 21:58:43 437.425
UWE-3 26 Mar 22:00:17 22:03:51 22° 269° (W) 22:07:24 435.000/436.395/437.385
LO-87 26 Mar 22:04:32 22:06:04 12° 60° (ENE) 22:07:37 145.935 - 145.965
DELFI C3 26 Mar 22:06:22 22:10:17 89° 79° (ENE) 22:14:15 145.870
STRAND 1 26 Mar 22:22:49 22:26:54 24° 300° (WNW) 22:30:57 437.568
Tancredo 1 26 Mar 22:24:15 22:27:19 49° 153° (SSE) 22:30:26 437.200
BEESAT 3 26 Mar 22:25:22 22:27:22 14° 111° (ESE) 22:29:24 437.485
ISS 26 Mar 22:25:25 22:28:34 46° 152° (SSE) 22:31:45 437.550
FO-29 26 Mar 22:25:50 22:28:37 13° 81° (E) 22:31:17 435.910
Oscar 11 26 Mar 22:32:58 22:36:05 19° 269° (W) 22:39:12 .
TIGRISAT 26 Mar 22:36:54 22:40:07 19° 90° (E) 22:43:16 435.000
ZACube-1 26 Mar 22:41:52 22:44:16 14° 272° (W) 22:46:40 437.345
UNISAT 6 26 Mar 22:46:49 22:50:33 26° 93° (E) 22:54:11 437.425
SO-50 26 Mar 22:54:57 22:59:15 40° 40° (NE) 23:03:29 436.795
VELOX 1 26 Mar 22:55:07 22:56:22 11° 53° (NE) 22:57:38 145.980
ESTCUBE 1 26 Mar 23:16:54 23:21:06 42° 68° (ENE) 23:25:21 437.505/2401.250
PRISM 26 Mar 23:28:11 23:32:20 70° 288° (WNW) 23:36:29 437.425
AO-85 26 Mar 23:30:39 23:34:22 29° 322° (NW) 23:37:56 145.980
SPROUT 26 Mar 23:34:38 23:37:48 20° 61° (ENE) 23:40:57 437.525
LO-87 26 Mar 23:35:25 23:39:01 70° 258° (WSW) 23:42:39 145.935 - 145.965
QB50P2 26 Mar 23:47:51 23:48:46 11° 86° (E) 23:49:40 145.880/145.840
RS-15 26 Mar 23:58:53 00:09:32 37° 254° (WSW) 00:19:48 29.354- 29.394
DUCHIFAT 1 26 Mar 23:59:24 00:00:24 11° 86° (E) 00:01:24 145.980
Tancredo 1 27 Mar 00:00:18 00:03:27 62° 352° (N) 00:06:37 437.200
BEESAT 3 27 Mar 00:00:27 00:04:24 80° 311° (NW) 00:08:26 437.485
ISS 27 Mar 00:01:44 00:05:00 64° 351° (N) 00:08:17 437.550
DX 1 27 Mar 00:04:47 00:08:05 21° 61° (ENE) 00:11:24 434.975-435.025
FO-29 27 Mar 00:08:46 00:15:01 79° 104° (ESE) 00:20:32 435.910
AIST 2D 27 Mar 00:11:17 00:14:15 25° 95° (E) 00:17:12 435.315
TIGRISAT 27 Mar 00:12:48 00:17:09 52° 290° (WNW) 00:21:22 435.000
BEESAT 2 27 Mar 00:16:51 00:20:46 66° 127° (SE) 00:24:48 435.950
UNISAT 6 27 Mar 00:23:14 00:27:24 39° 292° (WNW) 00:31:28 437.425
VELOX 1 27 Mar 00:27:37 00:32:00 70° 73° (ENE) 00:36:26 145.980
50 SAT 27 Mar 00:29:53 00:33:10 43° 70° (ENE) 00:36:29 437.505
SO-50 27 Mar 00:35:32 00:39:41 36° 240° (WSW) 00:43:47 436.795
UKube-1 27 Mar 00:43:21 00:47:14 34° 66° (ENE) 00:51:10 .
NANOSAT C BR1 27 Mar 00:43:26 00:47:16 32° 96° (E) 00:51:03 145.865
EO-79 27 Mar 00:48:09 00:52:09 39° 97° (E) 00:56:07 145.935-145.965
ESTCUBE 1 27 Mar 00:54:25 00:58:05 25° 267° (W) 01:01:47 437.505/2401.250
PRISM 27 Mar 01:06:31 01:06:51 10° 306° (NW) 01:07:11 437.425
SPROUT 27 Mar 01:09:09 01:13:22 53° 260° (W) 01:17:37 437.525
AO-85 27 Mar 01:14:54 01:16:01 11° 346° (NNW) 01:17:09 145.980
POLYITAN 1 27 Mar 01:16:18 01:20:33 75° 103° (ESE) 01:24:46 437.675
QB50P2 27 Mar 01:20:56 01:25:14 89° 104° (ESE) 01:29:27 145.880/145.840
DUCHIFAT 1 27 Mar 01:32:28 01:36:43 89° 301° (WNW) 01:40:55 145.980
O/OREOS (USA 219) 27 Mar 01:34:25 01:37:40 19° 44° (NE) 01:40:55 437.305
Tancredo 1 27 Mar 01:36:35 01:39:47 70° 12° (NNE) 01:42:58 437.200
ISS 27 Mar 01:38:24 01:41:41 69° 11° (NNE) 01:44:59 437.550
DX 1 27 Mar 01:39:43 01:43:57 51° 260° (W) 01:48:14 434.975-435.025
BEESAT 3 27 Mar 01:39:49 01:42:38 18° 331° (NNW) 01:45:29 437.485
AIST 2D 27 Mar 01:44:30 01:47:26 25° 293° (WNW) 01:50:21 435.315
BUGSAT 1 27 Mar 01:46:54 01:50:58 47° 99° (E) 01:54:58 437.445
Oscar 19 27 Mar 01:48:49 01:52:31 19° 90° (E) 01:56:11 437.125/150
FO-29 27 Mar 01:54:43 01:59:20 22° 307° (NW) 02:03:35 435.910
BEESAT 2 27 Mar 01:55:39 01:58:56 23° 327° (NNW) 02:02:14 435.950
50 SAT 27 Mar 02:04:23 02:06:27 15° 269° (W) 02:08:33 437.505
VELOX 1 27 Mar 02:06:25 02:08:58 15° 271° (W) 02:11:32 145.980
Gurwin Techsat 1B 27 Mar 02:06:55 02:10:21 17° 88° (E) 02:13:45 435.225
NANOSAT C BR1 27 Mar 02:19:14 02:22:56 30° 295° (WNW) 02:26:36 145.865
UKube-1 27 Mar 02:19:32 02:23:18 29° 264° (W) 02:27:06 .
EO-79 27 Mar 02:24:15 02:27:46 25° 296° (WNW) 02:31:14 145.935-145.965
BEESAT 27 Mar 02:34:24 02:38:51 41° 67° (ENE) 02:43:20 436.000
MOZHAYETS 4 27 Mar 02:48:00 02:51:39 24° 62° (ENE) 02:55:19
ITUPSAT 1 27 Mar 02:50:43 02:55:23 55° 69° (ENE) 03:00:04 437.325
POLYITAN 1 27 Mar 02:53:23 02:55:48 15° 302° (WNW) 02:58:13 437.675
AO-85 27 Mar 02:57:39 02:58:16 10° 11° (NNE) 02:58:52 145.980
AO-7 27 Mar 02:58:20 02:59:50 11° 80° (E) 03:01:20 .
QB50P2 27 Mar 02:58:25 03:00:22 13° 303° (WNW) 03:02:20 145.880/145.840
DUCHIFAT 1 27 Mar 03:09:54 03:11:45 13° 304° (WNW) 03:13:34 145.980
Tancredo 1 27 Mar 03:12:49 03:15:48 36° 211° (SSW) 03:18:47 437.200
O/OREOS (USA 219) 27 Mar 03:13:03 03:17:42 82° 245° (WSW) 03:22:18 437.305
ISS 27 Mar 03:14:58 03:18:05 39° 210° (SSW) 03:21:11 437.550
BUGSAT 1 27 Mar 03:22:51 03:26:03 21° 298° (WNW) 03:29:12 437.445
Oscar 19 27 Mar 03:27:11 03:32:20 69° 288° (WNW) 03:37:28 437.125/150
ITAMSAT 1 27 Mar 03:36:54 03:40:31 19° 90° (E) 03:44:05 435.822/435.867
BEESAT 2 27 Mar 03:37:32 03:38:07 10° 350° (N) 03:38:43 435.950
CUBESAT XI-V 27 Mar 03:42:28 03:45:20 17° 58° (ENE) 03:48:13 437.345
Gurwin Techsat 1B 27 Mar 03:45:36 03:50:57 80° 287° (WNW) 03:56:16 435.225
KKS-1 27 Mar 04:01:48 04:05:41 30° 64° (ENE) 04:09:37 437.445
BEESAT 27 Mar 04:12:36 04:16:45 29° 265° (W) 04:20:56 436.000
MOZHAYETS 4 27 Mar 04:24:06 04:28:33 48° 261° (W) 04:33:01
ITUPSAT 1 27 Mar 04:29:52 04:33:33 22° 268° (W) 04:37:14 437.325
STARS 27 Mar 04:36:23 04:40:16 31° 65° (ENE) 04:44:11 437.465
AO-85 27 Mar 04:36:40 04:40:01 26° 36° (NE) 04:43:21 145.980
AO-7 27 Mar 04:46:35 04:54:40 53° 102° (ESE) 05:02:43 .
M-CUBED/EXP-1 PRIME 27 Mar 04:48:22 04:49:56 12° 47° (NE) 04:51:32 437.505
O/OREOS (USA 219) 27 Mar 04:55:02 04:56:18 11° 264° (W) 04:57:33 437.305
BEESAT 3 27 Mar 04:59:19 05:01:11 13° 19° (NNE) 05:03:02 437.485
Oscar 19 27 Mar 05:08:22 05:10:45 13° 308° (NW) 05:13:08 437.125/150
ITAMSAT 1 27 Mar 05:15:19 05:20:31 72° 289° (WNW) 05:25:41 435.822/435.867
BEESAT 2 27 Mar 05:16:27 05:17:43 11° 14° (NNE) 05:18:58 435.950
CUBESAT XI-V 27 Mar 05:17:34 05:22:10 76° 257° (WSW) 05:26:47 437.345
Gurwin Techsat 1B 27 Mar 05:27:01 05:30:06 16° 307° (NW) 05:33:11 435.225
KKS-1 27 Mar 05:38:03 05:42:10 36° 263° (W) 05:46:20 437.445
DOVE 4 27 Mar 06:08:03 06:11:28 17° 87° (E) 06:14:50 437.250
STARS 27 Mar 06:12:31 06:16:33 34° 263° (W) 06:20:39 437.465
AO-85 27 Mar 06:16:48 06:20:37 51° 236° (WSW) 06:24:30 145.980
M-CUBED/EXP-1 PRIME 27 Mar 06:19:47 06:23:35 78° 68° (ENE) 06:27:44 437.505
STRAND 1 27 Mar 06:25:40 06:29:35 22° 58° (ENE) 06:33:30 437.568
YUBILEINY 27 Mar 06:27:54 06:32:20 15° 70° (ENE) 06:36:46 435.215
XW-2D 27 Mar 06:29:35 06:31:28 13° 89° (E) 06:33:19 145.860 - 145.880
KAITUO 1B 27 Mar 06:35:13 06:36:40 12° 88° (E) 06:38:07 145.475/437.950
XW-2B 27 Mar 06:35:17 06:37:28 15° 90° (E) 06:39:39 145.730 - 145.750
BEESAT 3 27 Mar 06:36:03 06:39:51 38° 41° (NE) 06:43:38 437.485
AO-7 27 Mar 06:39:37 06:47:23 46° 303° (WNW) 06:55:08 .
XW-2C 27 Mar 06:45:04 06:47:48 19° 92° (E) 06:50:31 145.795 - 145.815
BEESAT 2 27 Mar 06:53:11 06:56:46 28° 37° (NE) 07:00:19 435.950
ITAMSAT 1 27 Mar 06:56:30 06:59:07 14° 309° (NW) 07:01:42 435.822/435.867
NO-84 27 Mar 07:02:05 07:03:15 12° 132° (SE) 07:04:25 435.350 FM
CUTE-I 27 Mar 07:09:42 07:14:35 34° 96° (E) 07:19:25 437.470
XW-2F 27 Mar 07:35:51 07:39:35 66° 101° (E) 07:43:17 145.980 - 146.000
LilacSat-2 27 Mar 07:38:30 07:42:17 76° 103° (ESE) 07:46:03 437.200
DOVE 4 27 Mar 07:44:25 07:49:46 82° 284° (WNW) 07:55:01 437.250
M-CUBED/EXP-1 PRIME 27 Mar 07:57:18 07:58:41 12° 268° (W) 08:00:07 437.505
HO-68 27 Mar 07:58:16 08:04:10 27° 91° (E) 08:10:03 435.675
NUDT-PHONESAT 27 Mar 07:59:12 08:02:54 80° 285° (WNW) 08:06:34 437.300
XW-2A 27 Mar 08:00:21 08:02:48 18° 93° (E) 08:05:13 145.665 - 145.685
XW-2D 27 Mar 08:02:20 08:06:02 58° 287° (WNW) 08:09:43 145.860 - 145.880
STRAND 1 27 Mar 08:03:12 08:08:20 66° 258° (WSW) 08:13:28 437.568
KAITUO 1B 27 Mar 08:07:27 08:11:07 64° 286° (WNW) 08:14:47 145.475/437.950
XW-2B 27 Mar 08:08:19 08:12:00 52° 288° (WNW) 08:15:37 145.730 - 145.750
BEESAT 3 27 Mar 08:13:48 08:17:23 31° 241° (WSW) 08:20:57 437.485
XW-2C 27 Mar 08:18:39 08:22:11 39° 290° (WNW) 08:25:41 145.795 - 145.815
YUBILEINY 27 Mar 08:18:45 08:27:21 66° 93° (E) 08:35:57 435.215
AAUSAT CUBESAT 2 27 Mar 08:28:22 08:30:09 12° 87° (E) 08:31:56 437.432
BEESAT 2 27 Mar 08:30:48 08:34:44 48° 237° (WSW) 08:38:38 435.950
AO-7 27 Mar 08:33:45 08:38:12 16° 327° (NNW) 08:42:37 .
NO-84 27 Mar 08:37:28 08:40:19 85° 154° (SSE) 08:43:12 435.350 FM
FO-29 27 Mar 08:42:14 08:46:45 17° 49° (NE) 08:51:03 435.910
CUBEBUG 2 27 Mar 08:43:36 08:47:16 25° 92° (E) 08:50:49 437.445
SEEDS 27 Mar 08:44:40 08:48:30 34° 96° (E) 08:52:21 437.485
PRISM 27 Mar 08:47:37 08:50:28 19° 60° (ENE) 08:53:20 437.425
ZACube-1 27 Mar 08:49:39 08:50:27 10° 85° (E) 08:51:15 437.345
CUTE-I 27 Mar 08:49:42 08:54:42 41° 295° (WNW) 08:59:40 437.470
CUTE 1.7 + AOD 2 27 Mar 08:52:49 08:57:01 61° 101° (E) 09:01:11 437.475
XW-2F 27 Mar 09:11:24 09:13:16 13° 300° (WNW) 09:15:08 145.980 - 146.000
LilacSat-2 27 Mar 09:14:30 09:16:02 12° 301° (WNW) 09:17:33 437.200
AO-73 27 Mar 09:15:49 09:18:44 18° 90° (E) 09:21:37 145.935
DOVE 4 27 Mar 09:23:29 09:26:39 16° 305° (NW) 09:29:48 437.250
XW-2A 27 Mar 09:32:35 09:35:41 33° 291° (WNW) 09:38:44 145.665 - 145.685
TIGRISAT 27 Mar 09:39:03 09:43:08 31° 65° (ENE) 09:47:12 435.000
UWE-3 27 Mar 09:44:13 09:48:32 61° 99° (E) 09:52:43 435.000/436.395/437.385
HO-68 27 Mar 09:45:23 09:52:33 73° 292° (WNW) 09:59:40 435.675
UNISAT 6 27 Mar 09:49:09 09:53:31 40° 67° (ENE) 09:57:50 437.425
PCSat 27 Mar 09:49:14 09:53:50 29° 111° (ESE) 09:58:29 145.827
AAUSAT CUBESAT 2 27 Mar 10:02:00 10:06:09 76° 286° (WNW) 10:10:18 437.432
Oscar 11 27 Mar 10:14:04 10:18:20 58° 101° (E) 10:22:35 .
NO-84 27 Mar 10:15:30 10:18:05 30° 351° (N) 10:20:46 435.350 FM
YUBILEINY 27 Mar 10:16:59 10:24:48 35° 296° (WNW) 10:32:38 435.215
CUBEBUG 2 27 Mar 10:19:53 10:24:04 40° 292° (WNW) 10:28:05 437.445
SEEDS 27 Mar 10:20:33 10:24:07 28° 294° (WNW) 10:27:42 437.485
PRISM 27 Mar 10:21:25 10:25:23 54° 259° (W) 10:29:26 437.425
FO-29 27 Mar 10:23:00 10:30:37 62° 69° (ENE) 10:37:38 435.910
ZACube-1 27 Mar 10:23:09 10:27:27 90° 241° (WSW) 10:31:37 437.345
CUTE 1.7 + AOD 2 27 Mar 10:29:39 10:32:26 17° 299° (WNW) 10:35:14 437.475
POLYITAN 1 27 Mar 10:39:27 10:41:40 14° 57° (ENE) 10:43:53 437.675
QB50P2 27 Mar 10:43:38 10:46:15 16° 59° (ENE) 10:48:52 145.880/145.840
AIST 2D 27 Mar 10:50:08 10:52:47 20° 65° (ENE) 10:55:25 435.315
AO-73 27 Mar 10:51:12 10:55:20 52° 289° (WNW) 10:59:22 145.935
DUCHIFAT 1 27 Mar 10:54:27 10:57:03 16° 59° (ENE) 10:59:38 145.980
DELFI C3 27 Mar 11:13:40 11:17:41 81° 104° (ESE) 11:21:40 145.870
TIGRISAT 27 Mar 11:15:22 11:19:44 38° 263° (W) 11:24:04 435.000
UWE-3 27 Mar 11:21:38 11:24:33 18° 300° (WNW) 11:27:25 435.000/436.395/437.385
UNISAT 6 27 Mar 11:26:14 11:30:18 29° 266° (W) 11:34:21 437.425
PCSat 27 Mar 11:31:37 11:36:58 57° 312° (NW) 11:42:20 145.827
HO-68 27 Mar 11:34:18 11:39:10 20° 313° (NW) 11:44:02 435.675
NANOSAT C BR1 27 Mar 11:39:14 11:43:16 42° 69° (ENE) 11:47:19 145.865
AAUSAT CUBESAT 2 27 Mar 11:40:01 11:40:53 11° 304° (NW) 11:41:45 437.432
EO-79 27 Mar 11:44:16 11:48:25 51° 70° (ENE) 11:52:35 145.935-145.965
Oscar 11 27 Mar 11:51:05 11:54:05 19° 299° (WNW) 11:57:04 .
NO-84 27 Mar 11:53:25 11:56:09 33° 13° (NNE) 11:59:01 435.350 FM
ZACube-1 27 Mar 12:01:12 12:03:03 13° 304° (WNW) 12:04:52 437.345
FO-29 27 Mar 12:08:59 12:15:55 35° 267° (W) 12:22:27 435.910
POLYITAN 1 27 Mar 12:12:33 12:16:51 85° 257° (WSW) 12:21:10 437.675
AO-7 27 Mar 12:14:15 12:16:21 11° 23° (NNE) 12:18:27 .
RS-15 27 Mar 12:15:30 12:25:27 32° 103° (ESE) 12:35:36 29.354- 29.394
QB50P2 27 Mar 12:17:16 12:21:33 71° 257° (WSW) 12:25:50 145.880/145.840
AIST 2D 27 Mar 12:22:33 12:25:49 34° 263° (W) 12:29:06 435.315
DUCHIFAT 1 27 Mar 12:27:58 12:32:13 71° 257° (WSW) 12:36:30 145.980
LO-87 27 Mar 12:31:30 12:35:10 80° 103° (ESE) 12:38:49 145.935 - 145.965
BUGSAT 1 27 Mar 12:40:11 12:44:20 58° 72° (ENE) 12:48:33 437.445
ESTCUBE 1 27 Mar 12:41:14 12:45:39 50° 100° (E) 12:50:02 437.505/2401.250
DELFI C3 27 Mar 12:50:07 12:51:54 13° 302° (WNW) 12:53:40 145.870
SPROUT 27 Mar 12:51:05 12:54:12 19° 91° (E) 12:57:18 437.525
Oscar 19 27 Mar 13:09:32 13:14:20 43° 67° (ENE) 13:19:11 437.125/150
NANOSAT C BR1 27 Mar 13:15:45 13:19:09 23° 267° (W) 13:22:35 145.865
PCSat 27 Mar 13:17:45 13:21:32 19° 335° (NNW) 13:25:21 145.827
EO-79 27 Mar 13:21:22 13:24:29 19° 269° (W) 13:27:35 145.935-145.965
50 SAT 27 Mar 13:22:54 13:25:53 25° 96° (E) 13:28:52 437.505
DX 1 27 Mar 13:23:57 13:27:13 20° 92° (E) 13:30:28 434.975-435.025
NO-84 27 Mar 13:30:49 13:33:52 71° 212° (SSW) 13:37:09 435.350 FM
Gurwin Techsat 1B 27 Mar 13:31:44 13:36:41 41° 65° (ENE) 13:41:39 435.225
VELOX 1 27 Mar 13:49:26 13:53:56 77° 104° (ESE) 13:58:24 145.980
POLYITAN 1 27 Mar 13:52:49 13:53:19 10° 274° (W) 13:53:49 437.675
AO-7 27 Mar 13:59:36 14:06:29 30° 48° (NE) 14:13:22 .
UKube-1 27 Mar 14:01:32 14:05:28 32° 96° (E) 14:09:23 .
LO-87 27 Mar 14:06:54 14:08:04 11° 301° (WNW) 14:09:14 145.935 - 145.965
BUGSAT 1 27 Mar 14:17:17 14:20:05 17° 270° (W) 14:22:52 437.445
ESTCUBE 1 27 Mar 14:18:39 14:22:10 23° 298° (WNW) 14:25:40 437.505/2401.250
